AirNav   ATP
 
 460 users online  

4B7 Schroon Lake Airport
Schroon Lake, New York, USA

GOING TO SCHROON LAKE?


FAA INFORMATION EFFECTIVE 29 MARCH 2018

Location

FAA Identifier: 4B7
Lat/Long: 43-51-45.2862N / 073-44-25.9700W
43-51.754770N / 073-44.432833W
43.8625795 / -73.7405472
(estimated)
Elevation: 834.2 ft. / 254 m (estimated)
Variation: 15W (1985)
From city: 2 miles N of SCHROON LAKE, NY
Time zone: UTC -4 (UTC -5 during Standard Time)
Zip code: 12870

Airport Operations

Airport use: Open to the public
Activation date: 09/1966
Control tower: no
ARTCC: BOSTON CENTER
FSS: BURLINGTON FLIGHT SERVICE STATION
NOTAMs facility: BTV (NOTAM-D service available)
Attendance: UNATNDD, ALL DAYLIGHT HOURS
Wind indicator: yes
Segmented circle: no

Airport Communications

CTAF: 122.9

Nearby radio navigation aids

VOR radial/distance  VOR name  Freq  Var
GFLr004/31.8GLENS FALLS VORTAC110.2014W
SLKr161/37.2SARANAC LAKE VOR/DME109.2014W
RUTr315/39.8RUTLAND VOR/DME111.0015W

 
NDB name  Hdg/Dist  Freq  Var  ID
SMUTO300/35.222115WDYO -.. -.-- ---

Airport Services

Parking: tiedowns
Airframe service: NONE
Powerplant service: NONE
Bottled oxygen: NONE
Bulk oxygen: NONE

Runway Information

Runway 16/34

Dimensions: 3000 x 60 ft. / 914 x 18 m
Surface: asphalt, in good condition
Weight bearing capacity: 
Single wheel: 13.0
RUNWAY 16  RUNWAY 34
Traffic pattern: leftleft
Displaced threshold: 100 ft.no
Markings: basic, in fair conditionbasic, in fair condition
Runway end identifier lights: nono
Obstructions: 15 ft. road, 200 ft. from runway
RY 16 15 FT ROAD PARALLEL TO RY 118 FT RT. 42 FT TREE 163 FT FM RY 98 FT LT.
80 ft. trees, 285 ft. from runway, 81 ft. right of centerline, 1:1 slope to clear
RY 34 66 FT TREE 115 FT FM RY END 123 FT RT. 49 FT TREE O FT FM RY 118 FT LT. 60 FT TREE 87 FT FM RY 125 FT LT. 17 FT TREE 116 FT FM RY 8 FT LT.

Airport Ownership and Management from official FAA records

Ownership: Publicly-owned
Owner: TOWN OF SCHROON LAKE
SCHROON LAKE, NY 12870
Phone 518-532-7737
Manager: TOWN SUPERVISOR
C/O TOWN OF SCHROON LAKE
SCHROON LAKE, NY 12870
Phone 518-532-7737
FOR SVC CALL MGR PHONE 518-532-7737 OR 532-7878.

Airport Operational Statistics

Aircraft based on the field: 1
Single engine airplanes: 1
    
Aircraft operations: avg 67/month *
75% local general aviation
25% transient general aviation
* for 12-month period ending 12 September 2014

Additional Remarks

DEBRIS FM ADJACENT LAND FILL IS OCCASIONALLY BLOWN ONTO AND ACROSS RY.
TREES PENETRATE TRANSITION SFC BOTH SIDES;ROCK LEDGE PENETRATES TRANSITION SFC ON RIGHT SIDE
RECOMMENDED LDG RY 16, TKOF RY 34.
25 FT DROPOFF 30 FT FM RY 34 END.

Instrument Procedures

There are no published instrument procedures at 4B7.

Some nearby airports with instrument procedures:

4B6 - Ticonderoga Municipal Airport (14 nm E)
KLKP - Lake Placid Airport (26 nm N)
KGFL - Floyd Bennett Memorial Airport (32 nm S)
KSLK - Adirondack Regional Airport (37 nm NW)
KRUT - Rutland - Southern Vermont Regional Airport (40 nm SE)
 
Loc | Ops | Rwys | IFR | FBO | Links
Com | Nav | Svcs | Stats | Notes

AirNav Hotels Sweepstakes
 
Area around 4B7 (Schroon Lake Airport)
 
Road maps at: MapQuest Bing Google
 
Aerial photo
WARNING: Photo may not be current or correct
Aerial photo of 4B7 (Schroon Lake Airport)
Do you have a better or more recent aerial photo of Schroon Lake Airport that you would like to share? If so, please send us your photo.

 
Sectional chart

 
Airport distance calculator
Flying to Schroon Lake Airport? Find the distance to fly.

From to 4B7

Sunrise and sunset
Times for 25-Apr-2018
 Local
(UTC-4)
 Zulu
(UTC)
Morning civil twilight05:2609:26
Sunrise05:5709:57
Sunset19:4923:49
Evening civil twilight20:2000:20

Current date and time
Zulu (UTC)  25-Apr-2018 08:11:29
Local (UTC-4)  25-Apr-2018 04:11:29
 
METAR
K6B0 
29nm E 
250755Z AUTO 16003KT 10SM SCT070 SCT080 OVC100 11/05 A3009 RMK AO2 T01130048
KGFL 
32nm S 
250753Z AUTO 20005KT 10SM -RA BKN040 OVC055 09/08 A3011 RMK AO2 SLP197 P0001 T00940083
KSLK 
38nm NW 
250751Z AUTO 00000KT 10SM OVC060 09/01 A3004 RMK AO2 SLP172 T00890011
KRUT 
40nm SE 
250756Z AUTO 10009KT 10SM OVC038 11/03 A3011 RMK AO2 RAB17E29 SLP212 P0000 T01110028 $
KBTV 
44nm NE 
250754Z AUTO 17008KT 10SM OVC100 14/03 A3006 RMK AO2 SLP180 T01390028
KPBG 
49nm N 
250753Z AUTO 16006KT 10SM BKN100 OVC110 12/03 A3005 RMK AO2 SLP175 T01170028
TAF
KGFL 
32nm S 
250542Z 2506/2606 VRB05KT 6SM -SHRA OVC040 FM250800 VRB03KT 6SM -RA BR OVC025 FM260000 VRB03KT 4SM -DZ BR OVC015
KSLK 
38nm NW 
250537Z 2506/2606 00000KT P6SM OVC120 FM250800 VRB03KT P6SM VCSH OVC060 FM251200 12005KT P6SM -RA OVC030 FM252000 10005KT 4SM -RA BR OVC015 FM260200 07004KT 3SM -RA BR OVC008
KRUT 
40nm SE 
250537Z 2506/2606 15008KT P6SM OVC120 FM250800 15008KT P6SM VCSH OVC060 FM251300 12010KT 6SM -RA BR OVC025 FM252200 12010KT 4SM -RA BR OVC015 FM260300 12005KT 5SM -RA BR OVC010
NOTAMs
Click for the latest NOTAMs
NOTAMs are issued by the DoD/FAA and will open in a separate window not controlled by AirNav.

 

 
 

Would you like to see your business listed on this page?

 If your business provides an interesting product or service to pilots, flight crews, aircraft, or users of the Schroon Lake Airport, you should consider listing it here.  To start the listing process, click on the button below
 
Add a business
 

Other Pages about Schroon Lake Airport

Update a link
 
Copyright © AirNav, LLC. All rights reserved. Privacy Policy  Contact